Regional Weather Roundup
Issued by NWS Northern Indiana

Home | Current Version | Previous Version | Text Only | Print | Product List | Glossary Off
Versions: 1 2 3 4 5 6 7 8 9 10 11 12 13 14 15 16 17 18 19 20 21 22 23 24 25 26 27 28 29 30 31 32 33 34 35 36 37 38 39 40 41 42 43 44 45 46 47 48 49 50

000
ASUS43 KIWX 250300
RWRIWX

KIWX WEATHER ROUNDUP
NATIONAL WEATHER SERVICE NORTHERN INDIANA
1000 PM EST WED DEC 24 2014

NOTE: "FAIR" INDICATES FEW OR NO CLOUDS BELOW 12,000 FEET WITH NO
SIGNIFICANT WEATHER AND/OR OBSTRUCTIONS TO VISIBILITY.

* THESE STATIONS ARE NOT UNDER NWS QUALITY CONTROL. THEY ALSO MAY NOT
  REPORT WEATHER SUCH AS PRECIPITATION OR FOG.

INZ001>027-250400-
NORTHERN INDIANA

CITY           SKY/WX    TMP DP  RH WIND       PRES   REMARKS
GARY*          CLOUDY    37  32  81 W16       29.58R
VALPARAISO     CLOUDY    36  34  93 W12       29.57S
SOUTH BEND     CLOUDY    37  35  92 W13       29.55R
GOSHEN         CLOUDY    36  34  92 W15       29.54R
ANGOLA*        CLOUDY    34  34 100 W12       29.51R WCI  25
FORT WAYNE     CLOUDY    37  33  85 W20       29.59R

$$
INZ028>050-250400-
CENTRAL INDIANA

CITY           SKY/WX    TMP DP  RH WIND       PRES   REMARKS
LAFAYETTE      LGT RAIN  35  33  92 W15G25    29.64R WCI  25
KOKOMO*        CLOUDY    37  32  81 W15       29.63R
MUNCIE*        LGT RAIN  37  34  89 W16G23    29.63R
INDIANAPOLIS   CLOUDY    35  33  92 W16       29.68R WCI  25

$$
MIZ043>046-050>051-056>058-064>065-071>073-077>080-250400-
SOUTHWEST LOWER MICHIGAN

CITY           SKY/WX    TMP DP  RH WIND       PRES   REMARKS
BATTLE CREEK   LGT SNOW  34  32  92 SW12      29.48R FOG     WCI  25
BENTON HARBOR  CLOUDY    37  36  96 W16       29.52S
COLDWATER*     FLURRIES  33  33  99 MISG      29.50R
HILLSDALE*     FLURRIES  35  35 100 W13       29.47R WCI  26
HOLLAND        CLOUDY    40  35  83 W10       29.48R
GRAND RAPIDS   LGT SNOW  33  32  96 SW10      29.45S FOG     WCI  25
KALAMAZOO      FLURRIES  34  32  92 SW8       29.49R WCI  27
STURGIS*       MIX PCPN  34  34 100 SW12      29.51R WCI  25
THREE RIVERS*  MIX PCPN  34  33  94 SW7       29.52R WCI  28

$$
OHZ001>008-015>018-024>025-250400-
NORTHWEST OHIO

CITY           SKY/WX    TMP DP  RH WIND       PRES   REMARKS
DEFIANCE       CLOUDY    38  34  85 SW9G18    29.55R
FINDLAY        CLOUDY    39  35  86 W25G35    29.55R
TOLEDO EXPRESS CLOUDY    37  34  89 W18       29.50R
TOLEDO METCALF CLOUDY    39  34  82 W18G26    29.50R
LIMA           LGT RAIN  39  34  82 W22G30    29.58R

$$
AND FOR LAKE MICHIGAN COASTAL AND OPEN LAKE BUOY OBSERVATIONS

STATION/POSITION TEMP    WIND        PRES    VSBY  WAVE
                 AIR SEA DIR/SP/G                  HT/PER
                 (F)     (DEG/KT/KT) (MB)    (MI)  (FT/S)
CALUMET HARBOR    37     250/  9/ 12 1000.1R
MICHIGAN CITY     37     220/ 19/ 22   N/A
SAINT JOSEPH      38     240/ 15/ 20 1000.0R

$$
&&



USA.gov is the U.S. government's official web portal to all federal, state and local government web resources and services.